Location: Unspecified
(0.0000°N, 0.0000°E)
Time: 10:56:51
(UTC+00:00)

Explorer 11/Cluster Stage 4 - Pass Details

Date: 02 October 2020
Orbit: 467 x 1258 km, 28.8° (Epoch: 28 October)

Event Time Altitude Azimuth Distance (km) Brightness Sun altitude
Rises 20:28:54 0° 275° (W) 2,480 10.0 -39.8°
Enters shadow 20:29:35 - 279° (W) 2,256 9.7 -40.0°
Reaches altitude 10° 20:31:57 10° 304° (NW) 1,631 - -40.6°
Maximum altitude 20:33:48 13° 334° (NNW) 1,471 - -41.1°
Drops below altitude 10° 20:35:43 10° 4° (N) 1,712 - -41.5°
Sets 20:39:06 0° 32° (NNE) 2,719 - -42.4°
